,,,PA_Meas_PMT16A,,PR_Meas_QMR101_102,,RH_Meas_QMH101,,SR_Meas_QMS101,,TA_Meas_QMH101,,GenWind,,GenWind,
date,time,status,PA,status,PR,status,RH,status,SR,status,TA,status,DirAvg,status,SpdAvg,
2009-07-07, 00:00:05,VALID,1004.33,VALID,0,VALID,93.8352,VALID,0,VALID,23.9955,VALID,41,VALID,0,
2009-07-07, 00:01:05,VALID,1004.3,VALID,0,VALID,93.8123,VALID,0,VALID,23.9937,VALID,41,VALID,0,
2009-07-07, 00:02:05,VALID,1004.28,VALID,0,VALID,93.8657,VALID,0,VALID,23.9955,VALID,41,VALID,0,
2009-07-07, 00:03:05,VALID,1004.3,VALID,0,VALID,93.8123,VALID,0,VALID,23.9955,VALID,41,VALID,0,
2009-07-07, 00:04:05,VALID,1004.26,VALID,0,VALID,93.8047,VALID,0,VALID,23.9566,VALID,41,VALID,0,
2009-07-07, 00:05:05,VALID,1004.27,VALID,0,VALID,93.9802,VALID,0,VALID,23.9761,VALID,41,VALID,0,
2009-07-07, 00:06:05,VALID,1004.25,VALID,0,VALID,93.8352,VALID,0,VALID,23.9548,VALID,41,VALID,0,
2009-07-07, 00:07:05,VALID,1004.25,VALID,0,VALID,93.7895,VALID,0,VALID,23.9548,VALID,41,VALID,0,
2009-07-07, 00:08:05,VALID,1004.26,VALID,0,VALID,93.7971,VALID,0,VALID,23.9159,VALID,25,VALID,0.458984,
2009-07-07, 00:09:05,VALID,1004.25,VALID,0,VALID,93.9191,VALID,0,VALID,23.9566,VALID,23,VALID,0.274219,
2009-07-07, 00:10:05,VALID,1004.28,VALID,0,VALID,93.7818,VALID,0,VALID,23.9159,VALID,23,VALID,0.405078,
2009-07-07, 00:11:05,VALID,1004.27,VALID,0,VALID,93.7361,VALID,0,VALID,23.8982,VALID,23,VALID,0.380469,
2009-07-07, 00:12:05,VALID,1004.26,VALID,0,VALID,93.7971,VALID,0,VALID,23.8769,VALID,23,VALID,0.138672,
2009-07-07, 00:13:05,VALID,1004.23,VALID,0,VALID,93.82,VALID,0,VALID,23.8787,VALID,23,VALID,0,
2009-07-07, 00:14:05,VALID,1004.23,VALID,0,VALID,93.8047,VALID,0,VALID,23.8575,VALID,23,VALID,0,
2009-07-07, 00:15:05,VALID,1004.26,VALID,0,VALID,93.8734,VALID,0.100563,VALID,23.838,VALID,23,VALID,0,
2009-07-07, 00:16:05,VALID,1004.26,VALID,0,VALID,93.9039,VALID,0,VALID,23.8787,VALID,23,VALID,0,
2009-07-07, 00:17:05,VALID,1004.26,VALID,0,VALID,93.9573,VALID,0,VALID,23.8593,VALID,23,VALID,0.218359,
2009-07-07, 00:18:05,VALID,1004.27,VALID,0,VALID,94.0336,VALID,0,VALID,23.8982,VALID,23,VALID,0.0605469,
2009-07-07, 00:19:05,VALID,1004.3,VALID,0,VALID,93.9573,VALID,0,VALID,23.8769,VALID,23,VALID,0,
2009-07-07, 00:20:05,VALID,1004.29,VALID,0,VALID,93.9573,VALID,0.100563,VALID,23.8769,VALID,69,VALID,0.523438,
2009-07-07, 00:21:05,VALID,1004.27,VALID,0,VALID,93.9573,VALID,0,VALID,23.8593,VALID,69,VALID,0.116406,
2009-07-07, 00:22:05,VALID,1004.26,VALID,0,VALID,93.9649,VALID,0,VALID,23.8593,VALID,69,VALID,0.0015625,
2009-07-07, 00:23:05,VALID,1004.24,VALID,0,VALID,94.0031,VALID,0.100563,VALID,23.838,VALID,69,VALID,0.477734,
2009-07-07, 00:24:05,VALID,1004.23,VALID,0,VALID,94.0107,VALID,0,VALID,23.7991,VALID,65,VALID,0.409375,
2009-07-07, 00:25:05,VALID,1004.23,VALID,0,VALID,93.8581,VALID,0,VALID,23.7619,VALID,24,VALID,0.59375,
2009-07-07, 00:26:05,VALID,1004.24,VALID,0,VALID,93.8352,VALID,0.100563,VALID,23.7212,VALID,24,VALID,0.508594,
2009-07-07, 00:27:05,VALID,1004.23,VALID,0,VALID,93.82,VALID,0,VALID,23.6823,VALID,24,VALID,0.422266,
2009-07-07, 00:28:05,VALID,1004.24,VALID,0,VALID,93.8505,VALID,0,VALID,23.6628,VALID,24,VALID,0.306641,
2009-07-07, 00:29:05,VALID,1004.24,VALID,0,VALID,93.881,VALID,0,VALID,23.6434,VALID,24,VALID,0,
2009-07-07, 00:30:05,VALID,1004.22,VALID,0,VALID,93.8963,VALID,0,VALID,23.6239,VALID,24,VALID,0,
2009-07-07, 00:31:05,VALID,1004.2,VALID,0,VALID,93.9191,VALID,0,VALID,23.6062,VALID,24,VALID,0,
2009-07-07, 00:32:05,VALID,1004.22,VALID,0,VALID,93.9344,VALID,0,VALID,23.585,VALID,24,VALID,0,
2009-07-07, 00:33:05,VALID,1004.2,VALID,0,VALID,93.9725,VALID,0,VALID,23.5868,VALID,24,VALID,0,
2009-07-07, 00:34:05,VALID,1004.15,VALID,0,VALID,94.1022,VALID,0,VALID,23.5655,VALID,24,VALID,0,
2009-07-07, 00:35:05,VALID,1004.16,VALID,0,VALID,94.2014,VALID,0,VALID,23.6044,VALID,24,VALID,0,
2009-07-07, 00:36:05,VALID,1004.14,VALID,0,VALID,94.1862,VALID,0,VALID,23.6257,VALID,24,VALID,0,
2009-07-07, 00:37:05,VALID,1004.14,VALID,0,VALID,94.1862,VALID,0,VALID,23.6044,VALID,24,VALID,0,
2009-07-07, 00:38:05,VALID,1004.13,VALID,0,VALID,94.1556,VALID,0,VALID,23.585,VALID,24,VALID,0,
2009-07-07, 00:39:05,VALID,1004.15,VALID,0,VALID,94.1099,VALID,0,VALID,23.5637,VALID,24,VALID,0,
2009-07-07, 00:40:05,VALID,1004.12,VALID,0,VALID,94.1022,VALID,0,VALID,23.546,VALID,24,VALID,0,
2009-07-07, 00:41:05,VALID,1004.14,VALID,0,VALID,94.1175,VALID,0,VALID,23.546,VALID,24,VALID,0,
2009-07-07, 00:42:05,VALID,1004.09,VALID,0,VALID,94.1175,VALID,0,VALID,23.5266,VALID,24,VALID,0,
2009-07-07, 00:43:05,VALID,1004.1,VALID,0,VALID,94.1251,VALID,0,VALID,23.5071,VALID,24,VALID,0,
2009-07-07, 00:44:05,VALID,1004.05,VALID,0,VALID,94.1328,VALID,0,VALID,23.4877,VALID,24,VALID,0,
2009-07-07, 00:45:05,VALID,1004.05,VALID,0,VALID,94.1556,VALID,0,VALID,23.4877,VALID,24,VALID,0,
2009-07-07, 00:46:05,VALID,1004.02,VALID,0,VALID,94.2243,VALID,0,VALID,23.5284,VALID,24,VALID,0,
2009-07-07, 00:47:05,VALID,1004.02,VALID,0,VALID,94.3158,VALID,0,VALID,23.5266,VALID,24,VALID,0,
2009-07-07, 00:48:05,VALID,1004.03,VALID,0,VALID,94.3387,VALID,0,VALID,23.5868,VALID,24,VALID,0,
2009-07-07, 00:49:05,VALID,1004.02,VALID,0,VALID,94.354,VALID,0,VALID,23.5673,VALID,24,VALID,0,
2009-07-07, 00:50:05,VALID,1004.01,VALID,0,VALID,94.3921,VALID,0,VALID,23.5673,VALID,24,VALID,0,
2009-07-07, 00:51:05,VALID,1003.98,VALID,0,VALID,94.415,VALID,0,VALID,23.6062,VALID,24,VALID,0,
2009-07-07, 00:52:05,VALID,1003.96,VALID,0,VALID,94.4532,VALID,0,VALID,23.6062,VALID,24,VALID,0,
2009-07-07, 00:53:05,VALID,1003.98,VALID,0,VALID,94.4913,VALID,0,VALID,23.6452,VALID,24,VALID,0,
2009-07-07, 00:54:05,VALID,1003.95,VALID,0,VALID,94.5371,VALID,0,VALID,23.6434,VALID,24,VALID,0,
2009-07-07, 00:55:04,VALID,1003.94,VALID,0,VALID,94.5295,VALID,0,VALID,23.6646,VALID,24,VALID,0,
2009-07-07, 00:56:04,VALID,1003.92,VALID,0,VALID,94.5295,VALID,0,VALID,23.6434,VALID,24,VALID,0,
2009-07-07, 00:57:04,VALID,1003.9,VALID,0,VALID,94.5676,VALID,0,VALID,23.6239,VALID,24,VALID,0,
2009-07-07, 00:58:04,VALID,1003.9,VALID,0,VALID,94.5371,VALID,0,VALID,23.6646,VALID,24,VALID,0,
2009-07-07, 00:59:04,VALID,1003.88,VALID,0,VALID,94.5676,VALID,0,VALID,23.6646,VALID,24,VALID,0,
2009-07-07, 01:00:04,VALID,1003.86,VALID,0,VALID,94.5447,VALID,0,VALID,23.6646,VALID,24,VALID,0,
2009-07-07, 01:01:04,VALID,1003.87,VALID,0,VALID,94.5752,VALID,0,VALID,23.6452,VALID,24,VALID,0,
2009-07-07, 01:02:04,VALID,1003.81,VALID,0,VALID,94.5752,VALID,0,VALID,23.6452,VALID,24,VALID,0,
2009-07-07, 01:03:04,VALID,1003.81,VALID,0,VALID,94.5523,VALID,0,VALID,23.6062,VALID,24,VALID,0,
2009-07-07, 01:04:04,VALID,1003.79,VALID,0,VALID,94.5371,VALID,0,VALID,23.5868,VALID,24,VALID,0,
2009-07-07, 01:05:04,VALID,1003.77,VALID,0,VALID,94.5142,VALID,0,VALID,23.585,VALID,24,VALID,0,
2009-07-07, 01:06:04,VALID,1003.78,VALID,0,VALID,94.5218,VALID,0,VALID,23.5655,VALID,25,VALID,0.0515625,
2009-07-07, 01:07:04,VALID,1003.74,VALID,0,VALID,94.5523,VALID,0,VALID,23.5868,VALID,26,VALID,0.363672,
2009-07-07, 01:08:04,VALID,1003.73,VALID,0,VALID,94.56,VALID,0,VALID,23.5655,VALID,26,VALID,0.399219,
2009-07-07, 01:09:04,VALID,1003.71,VALID,0,VALID,94.5523,VALID,0,VALID,23.5868,VALID,26,VALID,0.388281,
2009-07-07, 01:10:04,VALID,1003.71,VALID,0,VALID,94.5676,VALID,0,VALID,23.5655,VALID,26,VALID,0.333203,
2009-07-07, 01:11:04,VALID,1003.67,VALID,0,VALID,94.5371,VALID,0,VALID,23.5673,VALID,26,VALID,0.450391,
2009-07-07, 01:12:04,VALID,1003.66,VALID,0,VALID,94.4989,VALID,0,VALID,23.4877,VALID,26,VALID,0.466016,
2009-07-07, 01:13:04,VALID,1003.64,VALID,0,VALID,94.4761,VALID,0,VALID,23.5089,VALID,26,VALID,0.292188,
2009-07-07, 01:14:04,VALID,1003.61,VALID,0,VALID,94.4532,VALID,0,VALID,23.47,VALID,26,VALID,0.278516,
2009-07-07, 01:15:04,VALID,1003.58,VALID,0,VALID,94.4913,VALID,0,VALID,23.4894,VALID,26,VALID,0.152344,
2009-07-07, 01:16:04,VALID,1003.59,VALID,0,VALID,94.5371,VALID,0,VALID,23.5089,VALID,26,VALID,0.0386719,
2009-07-07, 01:17:04,VALID,1003.57,VALID,0,VALID,94.5829,VALID,0,VALID,23.5071,VALID,26,VALID,0,
2009-07-07, 01:18:04,VALID,1003.56,VALID,0,VALID,94.5752,VALID,0,VALID,23.5284,VALID,25,VALID,0.103516,
2009-07-07, 01:19:04,VALID,1003.6,VALID,0,VALID,94.5905,VALID,0,VALID,23.5266,VALID,25,VALID,0,
2009-07-07, 01:20:04,VALID,1003.56,VALID,0,VALID,94.6057,VALID,0,VALID,23.5478,VALID,25,VALID,0.235156,
2009-07-07, 01:21:04,VALID,1003.59,VALID,0,VALID,94.6134,VALID,0,VALID,23.5655,VALID,25,VALID,0.246875,
2009-07-07, 01:22:04,VALID,1003.56,VALID,0,VALID,94.6363,VALID,0,VALID,23.585,VALID,25,VALID,0.277734,
2009-07-07, 01:23:04,VALID,1003.58,VALID,0,VALID,94.621,VALID,0,VALID,23.6062,VALID,25,VALID,0.330469,
2009-07-07, 01:24:04,VALID,1003.56,VALID,0,VALID,94.5447,VALID,0,VALID,23.5478,VALID,22,VALID,0.707031,
2009-07-07, 01:25:04,VALID,1003.55,VALID,0,VALID,94.4989,VALID,0,VALID,23.5266,VALID,20,VALID,0.666406,
2009-07-07, 01:26:04,VALID,1003.53,VALID,0,VALID,94.5523,VALID,0,VALID,23.546,VALID,353,VALID,0.468359,
2009-07-07, 01:27:04,VALID,1003.54,VALID,0,VALID,94.6057,VALID,0,VALID,23.6257,VALID,352,VALID,0.431641,
2009-07-07, 01:28:04,VALID,1003.52,VALID,0,VALID,94.6134,VALID,0,VALID,23.585,VALID,358,VALID,0.400391,
2009-07-07, 01:29:04,VALID,1003.5,VALID,0,VALID,94.5981,VALID,0,VALID,23.5868,VALID,358,VALID,0.471875,
2009-07-07, 01:30:04,VALID,1003.51,VALID,0,VALID,94.5981,VALID,0,VALID,23.6062,VALID,358,VALID,0.33125,
2009-07-07, 01:31:04,VALID,1003.5,VALID,0,VALID,94.5905,VALID,0,VALID,23.546,VALID,358,VALID,0.416797,
2009-07-07, 01:32:04,VALID,1003.48,VALID,0,VALID,94.5676,VALID,0,VALID,23.5266,VALID,358,VALID,0.320313,
2009-07-07, 01:33:04,VALID,1003.51,VALID,0,VALID,94.5905,VALID,0,VALID,23.546,VALID,358,VALID,0.439063,
2009-07-07, 01:34:04,VALID,1003.49,VALID,0,VALID,94.5981,VALID,0,VALID,23.5071,VALID,360,VALID,0.520703,
2009-07-07, 01:35:04,VALID,1003.48,VALID,0,VALID,94.5447,VALID,0,VALID,23.4682,VALID,2,VALID,0.302344,
2009-07-07, 01:36:04,VALID,1003.47,VALID,0,VALID,94.6057,VALID,0,VALID,23.5071,VALID,2,VALID,0.252734,
2009-07-07, 01:37:04,VALID,1003.44,VALID,0,VALID,94.6439,VALID,0,VALID,23.5673,VALID,2,VALID,0.303906,
2009-07-07, 01:38:04,VALID,1003.42,VALID,0,VALID,94.6744,VALID,0,VALID,23.5673,VALID,2,VALID,0.326953,
2009-07-07, 01:39:04,VALID,1003.41,VALID,0,VALID,94.6668,VALID,0,VALID,23.5478,VALID,2,VALID,0.559375,
2009-07-07, 01:40:04,VALID,1003.38,VALID,0,VALID,94.6286,VALID,0,VALID,23.4877,VALID,5,VALID,0.602734,
2009-07-07, 01:41:04,VALID,1003.4,VALID,0,VALID,94.5905,VALID,0,VALID,23.4682,VALID,5,VALID,0.658594,
2009-07-07, 01:42:04,VALID,1003.39,VALID,0,VALID,94.5752,VALID,0,VALID,23.4487,VALID,5,VALID,0.552344,
2009-07-07, 01:43:04,VALID,1003.37,VALID,0,VALID,94.5371,VALID,0,VALID,23.4116,VALID,5,VALID,0.419922,
2009-07-07, 01:44:04,VALID,1003.4,VALID,0,VALID,94.5142,VALID,0,VALID,23.3921,VALID,5,VALID,0.375781,
2009-07-07, 01:45:04,VALID,1003.42,VALID,0,VALID,94.5981,VALID,0,VALID,23.4311,VALID,5,VALID,0.133203,
2009-07-07, 01:46:04,VALID,1003.38,VALID,0,VALID,94.6591,VALID,0,VALID,23.47,VALID,5,VALID,0,
2009-07-07, 01:47:04,VALID,1003.39,VALID,0,VALID,94.6744,VALID,0,VALID,23.4487,VALID,5,VALID,0,
2009-07-07, 01:48:04,VALID,1003.4,VALID,0,VALID,94.6668,VALID,0,VALID,23.4293,VALID,5,VALID,0,
2009-07-07, 01:49:04,VALID,1003.38,VALID,0,VALID,94.6591,VALID,0,VALID,23.4487,VALID,5,VALID,0,
2009-07-07, 01:50:04,VALID,1003.41,VALID,0,VALID,94.6973,VALID,0,VALID,23.4894,VALID,5,VALID,0,
2009-07-07, 01:51:04,VALID,1003.43,VALID,0,VALID,94.7965,VALID,0,VALID,23.5673,VALID,5,VALID,0.219531,
2009-07-07, 01:52:04,VALID,1003.41,VALID,0,VALID,94.8422,VALID,0,VALID,23.6239,VALID,5,VALID,0.407031,
2009-07-07, 01:53:04,VALID,1003.4,VALID,0,VALID,94.8956,VALID,0,VALID,23.723,VALID,5,VALID,0.349219,
2009-07-07, 01:54:04,VALID,1003.39,VALID,0,VALID,94.9338,VALID,0,VALID,23.7407,VALID,5,VALID,0.00351562,
2009-07-07, 01:55:04,VALID,1003.4,VALID,0,VALID,94.9185,VALID,0,VALID,23.7212,VALID,5,VALID,0,
2009-07-07, 01:56:04,VALID,1003.39,VALID,0,VALID,94.8651,VALID,0,VALID,23.7017,VALID,5,VALID,0,
2009-07-07, 01:57:04,VALID,1003.38,VALID,0,VALID,94.827,VALID,0,VALID,23.6628,VALID,5,VALID,0.112109,
2009-07-07, 01:58:04,VALID,1003.37,VALID,0,VALID,94.8194,VALID,0,VALID,23.6823,VALID,5,VALID,0.151172,
2009-07-07, 01:59:04,VALID,1003.36,VALID,0,VALID,94.8346,VALID,0,VALID,23.7425,VALID,5,VALID,0.525,
2009-07-07, 02:00:04,VALID,1003.34,VALID,0,VALID,94.8422,VALID,0,VALID,23.8009,VALID,5,VALID,0.149219,
2009-07-07, 02:01:04,VALID,1003.32,VALID,0,VALID,94.8804,VALID,0,VALID,23.7407,VALID,5,VALID,0.0441406,
2009-07-07, 02:02:04,VALID,1003.34,VALID,0,VALID,94.827,VALID,0,VALID,23.7407,VALID,5,VALID,0.203906,
2009-07-07, 02:03:04,VALID,1003.32,VALID,0,VALID,94.7888,VALID,0,VALID,23.7035,VALID,5,VALID,0.189453,
2009-07-07, 02:04:04,VALID,1003.35,VALID,0,VALID,94.7125,VALID,0,VALID,23.6239,VALID,5,VALID,0.147266,
2009-07-07, 02:05:04,VALID,1003.32,VALID,0,VALID,94.6286,VALID,0,VALID,23.5655,VALID,5,VALID,0.479297,
2009-07-07, 02:06:04,VALID,1003.3,VALID,0,VALID,94.5295,VALID,0,VALID,23.5478,VALID,15,VALID,0.454688,
2009-07-07, 02:07:04,VALID,1003.26,VALID,0,VALID,94.5142,VALID,0.100563,VALID,23.5071,VALID,15,VALID,0.341016,
2009-07-07, 02:08:04,VALID,1003.25,VALID,0,VALID,94.4761,VALID,0,VALID,23.447,VALID,15,VALID,0.361719,
2009-07-07, 02:09:04,VALID,1003.25,VALID,0,VALID,94.4455,VALID,0,VALID,23.4098,VALID,15,VALID,0.302734,
2009-07-07, 02:10:04,VALID,1003.24,VALID,0,VALID,94.4455,VALID,0,VALID,23.4293,VALID,15,VALID,0.0140625,
2009-07-07, 02:11:04,VALID,1003.25,VALID,0,VALID,94.4913,VALID,0,VALID,23.4293,VALID,15,VALID,0.000390625,
2009-07-07, 02:12:04,VALID,1003.24,VALID,0,VALID,94.5142,VALID,0,VALID,23.4505,VALID,15,VALID,0,
2009-07-07, 02:13:04,VALID,1003.22,VALID,0,VALID,94.5142,VALID,0,VALID,23.4098,VALID,15,VALID,0.258984,
2009-07-07, 02:14:04,VALID,1003.22,VALID,0,VALID,94.56,VALID,0,VALID,23.4293,VALID,15,VALID,0.309766,
2009-07-07, 02:15:04,VALID,1003.2,VALID,0,VALID,94.5752,VALID,0,VALID,23.4098,VALID,15,VALID,0.311328,
2009-07-07, 02:16:04,VALID,1003.18,VALID,0,VALID,94.5981,VALID,0,VALID,23.4293,VALID,15,VALID,0.460547,
2009-07-07, 02:17:04,VALID,1003.16,VALID,0,VALID,94.621,VALID,0,VALID,23.4293,VALID,15,VALID,0.236719,
2009-07-07, 02:18:04,VALID,1003.15,VALID,0,VALID,94.6363,VALID,0,VALID,23.4293,VALID,15,VALID,0.270312,
2009-07-07, 02:19:04,VALID,1003.17,VALID,0,VALID,94.6439,VALID,0,VALID,23.4293,VALID,15,VALID,0.191016,
2009-07-07, 02:20:04,VALID,1003.14,VALID,0,VALID,94.7125,VALID,0,VALID,23.5284,VALID,15,VALID,0.288672,
2009-07-07, 02:21:04,VALID,1003.14,VALID,0,VALID,94.7736,VALID,0,VALID,23.6044,VALID,15,VALID,0.244922,
2009-07-07, 02:22:04,VALID,1003.13,VALID,0,VALID,94.7965,VALID,0,VALID,23.585,VALID,15,VALID,0.00703125,
2009-07-07, 02:23:04,VALID,1003.08,VALID,0,VALID,94.8041,VALID,0,VALID,23.585,VALID,15,VALID,0.0746094,
2009-07-07, 02:24:04,VALID,1003.05,VALID,0,VALID,94.7965,VALID,0,VALID,23.5673,VALID,15,VALID,0.339844,
2009-07-07, 02:25:04,VALID,1003.02,VALID,0,VALID,94.7965,VALID,0,VALID,23.585,VALID,15,VALID,0.387109,
2009-07-07, 02:26:04,VALID,1003.04,VALID,0,VALID,94.8346,VALID,0,VALID,23.6239,VALID,15,VALID,0.3625,
2009-07-07, 02:27:04,VALID,1003.02,VALID,0,VALID,94.8346,VALID,0,VALID,23.6239,VALID,15,VALID,0.355859,
2009-07-07, 02:28:04,VALID,1002.99,VALID,0,VALID,94.7965,VALID,0,VALID,23.6044,VALID,15,VALID,0.359766,
2009-07-07, 02:29:04,VALID,1003.01,VALID,0,VALID,94.8194,VALID,0,VALID,23.6257,VALID,15,VALID,0.403125,
2009-07-07, 02:30:04,VALID,1003,VALID,0,VALID,94.8117,VALID,0,VALID,23.6434,VALID,15,VALID,0.333984,
2009-07-07, 02:31:04,VALID,1003,VALID,0,VALID,94.827,VALID,0,VALID,23.6434,VALID,15,VALID,0.127344,
2009-07-07, 02:32:04,VALID,1002.97,VALID,0,VALID,94.8041,VALID,0,VALID,23.6239,VALID,15,VALID,0.224219,
2009-07-07, 02:33:04,VALID,1003,VALID,0,VALID,94.827,VALID,0,VALID,23.6841,VALID,15,VALID,0.0300781,
2009-07-07, 02:34:04,VALID,1002.97,VALID,0,VALID,94.8346,VALID,0,VALID,23.6628,VALID,15,VALID,0.0078125,
2009-07-07, 02:35:04,VALID,1002.97,VALID,0,VALID,94.8346,VALID,0,VALID,23.6628,VALID,15,VALID,0.233594,
2009-07-07, 02:36:04,VALID,1002.96,VALID,0,VALID,94.8422,VALID,0,VALID,23.6628,VALID,15,VALID,0.270312,
2009-07-07, 02:37:04,VALID,1002.97,VALID,0,VALID,94.8346,VALID,0,VALID,23.6823,VALID,15,VALID,0.289063,
2009-07-07, 02:38:04,VALID,1002.93,VALID,0,VALID,94.7812,VALID,0,VALID,23.6434,VALID,15,VALID,0,
2009-07-07, 02:39:04,VALID,1002.89,VALID,0,VALID,94.7583,VALID,0,VALID,23.6044,VALID,15,VALID,0,
2009-07-07, 02:40:04,VALID,1002.87,VALID,0,VALID,94.6973,VALID,0,VALID,23.6062,VALID,15,VALID,0,
2009-07-07, 02:41:04,VALID,1002.85,VALID,0,VALID,94.6591,VALID,0,VALID,23.546,VALID,15,VALID,0,
2009-07-07, 02:42:04,VALID,1002.89,VALID,0,VALID,94.5829,VALID,0,VALID,23.5071,VALID,15,VALID,0,
2009-07-07, 02:43:04,VALID,1002.84,VALID,0,VALID,94.5447,VALID,0,VALID,23.4877,VALID,15,VALID,0,
2009-07-07, 02:44:04,VALID,1002.85,VALID,0,VALID,94.5218,VALID,0,VALID,23.4894,VALID,15,VALID,0,
2009-07-07, 02:45:04,VALID,1002.83,VALID,0,VALID,94.5218,VALID,0,VALID,23.4487,VALID,15,VALID,0,
2009-07-07, 02:46:04,VALID,1002.8,VALID,0,VALID,94.5371,VALID,0,VALID,23.4894,VALID,15,VALID,0,
2009-07-07, 02:47:04,VALID,1002.8,VALID,0,VALID,94.5829,VALID,0,VALID,23.4877,VALID,23,VALID,0,
2009-07-07, 02:48:04,VALID,1002.81,VALID,0,VALID,94.621,VALID,0,VALID,23.5673,VALID,23,VALID,0,
2009-07-07, 02:49:04,VALID,1002.78,VALID,0,VALID,94.6668,VALID,0,VALID,23.6044,VALID,35,VALID,0,
2009-07-07, 02:50:04,VALID,1002.79,VALID,0,VALID,94.766,VALID,0,VALID,23.7212,VALID,52,VALID,0.248047,
2009-07-07, 02:51:04,VALID,1002.77,VALID,0,VALID,94.8346,VALID,0,VALID,23.7407,VALID,52,VALID,0.203906,
2009-07-07, 02:52:04,VALID,1002.77,VALID,0,VALID,94.8422,VALID,0,VALID,23.7814,VALID,38,VALID,0.525,
2009-07-07, 02:53:04,VALID,1002.75,VALID,0,VALID,94.8346,VALID,0,VALID,23.7619,VALID,35,VALID,0.382031,
2009-07-07, 02:54:04,VALID,1002.77,VALID,0,VALID,94.827,VALID,0,VALID,23.7991,VALID,22,VALID,0.619531,
2009-07-07, 02:55:04,VALID,1002.73,VALID,0,VALID,94.888,VALID,0,VALID,23.8575,VALID,23,VALID,0.350781,
2009-07-07, 02:56:04,VALID,1002.75,VALID,0,VALID,94.888,VALID,0,VALID,23.8964,VALID,21,VALID,0.368359,
2009-07-07, 02:57:04,VALID,1002.71,VALID,0,VALID,94.8956,VALID,0,VALID,23.9159,VALID,22,VALID,0.145313,
2009-07-07, 02:58:04,VALID,1002.75,VALID,0,VALID,94.8728,VALID,0,VALID,23.9548,VALID,25,VALID,0.101563,
2009-07-07, 02:59:04,VALID,1002.74,VALID,0,VALID,94.888,VALID,0,VALID,24.0345,VALID,28,VALID,0,
2009-07-07, 03:00:04,VALID,1002.74,VALID,0,VALID,94.9109,VALID,0,VALID,24.0716,VALID,28,VALID,0.2375,
2009-07-07, 03:01:04,VALID,1002.73,VALID,0,VALID,94.8804,VALID,0,VALID,24.1105,VALID,28,VALID,0.365234,
2009-07-07, 03:02:04,VALID,1002.73,VALID,0,VALID,94.8804,VALID,0,VALID,24.1105,VALID,28,VALID,0.207813,
2009-07-07, 03:03:04,VALID,1002.71,VALID,0,VALID,94.827,VALID,0,VALID,24.1105,VALID,28,VALID,0.416406,
2009-07-07, 03:04:04,VALID,1002.73,VALID,0,VALID,94.827,VALID,0,VALID,24.1902,VALID,24,VALID,0.400781,
2009-07-07, 03:05:04,VALID,1002.72,VALID,0,VALID,94.8194,VALID,0,VALID,24.1865,VALID,45,VALID,0.233984,
2009-07-07, 03:06:04,VALID,1002.71,VALID,0,VALID,94.7736,VALID,0,VALID,24.2078,VALID,45,VALID,0.0382813,
2009-07-07, 03:07:04,VALID,1002.7,VALID,0,VALID,94.7049,VALID,0,VALID,24.2097,VALID,45,VALID,0.114063,
2009-07-07, 03:08:04,VALID,1002.69,VALID,0,VALID,94.6744,VALID,0,VALID,24.2078,VALID,45,VALID,0.232031,
2009-07-07, 03:09:04,VALID,1002.68,VALID,0,VALID,94.6134,VALID,0,VALID,24.2291,VALID,45,VALID,0.00429688,
2009-07-07, 03:10:04,VALID,1002.67,VALID,0,VALID,94.5676,VALID,0,VALID,24.2078,VALID,63,VALID,0.589063,
2009-07-07, 03:11:04,VALID,1002.68,VALID,0,VALID,94.5371,VALID,0,VALID,24.2273,VALID,71,VALID,0.401953,
2009-07-07, 03:12:04,VALID,1002.66,VALID,0,VALID,94.5523,VALID,0,VALID,24.2857,VALID,72,VALID,0.166016,
2009-07-07, 03:13:04,VALID,1002.65,VALID,0,VALID,94.5142,VALID,0,VALID,24.3052,VALID,74,VALID,0.481641,
2009-07-07, 03:14:04,VALID,1002.67,VALID,0,VALID,94.4989,VALID,0,VALID,24.3246,VALID,74,VALID,0.0816406,
2009-07-07, 03:15:04,VALID,1002.66,VALID,0,VALID,94.4761,VALID,0,VALID,24.3441,VALID,74,VALID,0.0679687,
2009-07-07, 03:16:04,VALID,1002.65,VALID,0,VALID,94.4379,VALID,0,VALID,24.3654,VALID,74,VALID,0.0421875,
2009-07-07, 03:17:04,VALID,1002.65,VALID,0,VALID,94.4227,VALID,0,VALID,24.3849,VALID,74,VALID,0,
2009-07-07, 03:18:04,VALID,1002.66,VALID,0,VALID,94.3692,VALID,0.100563,VALID,24.3636,VALID,74,VALID,0,
2009-07-07, 03:19:04,VALID,1002.67,VALID,0,VALID,94.3158,VALID,0,VALID,24.3849,VALID,74,VALID,0.532812,
2009-07-07, 03:20:04,VALID,1002.67,VALID,0,VALID,94.2624,VALID,0,VALID,24.3636,VALID,74,VALID,0.237109,
2009-07-07, 03:21:04,VALID,1002.65,VALID,0,VALID,94.1938,VALID,0,VALID,24.4043,VALID,74,VALID,0.342187,
2009-07-07, 03:22:04,VALID,1002.68,VALID,0,VALID,94.1633,VALID,0,VALID,24.4025,VALID,74,VALID,0.0445312,
2009-07-07, 03:23:04,VALID,1002.68,VALID,0,VALID,94.1022,VALID,0,VALID,24.4025,VALID,74,VALID,0.107031,
2009-07-07, 03:24:04,VALID,1002.66,VALID,0,VALID,94.0717,VALID,0,VALID,24.383,VALID,74,VALID,0.183594,
2009-07-07, 03:25:04,VALID,1002.67,VALID,0,VALID,94.0336,VALID,0,VALID,24.3636,VALID,74,VALID,0.121484,
2009-07-07, 03:26:04,VALID,1002.69,VALID,0,VALID,94.0031,VALID,0,VALID,24.3636,VALID,75,VALID,0.472266,
2009-07-07, 03:27:04,VALID,1002.66,VALID,0,VALID,93.8963,VALID,0,VALID,24.3246,VALID,75,VALID,0.090625,
2009-07-07, 03:28:04,VALID,1002.7,VALID,0,VALID,93.9344,VALID,0,VALID,24.3246,VALID,75,VALID,0.0660156,
2009-07-07, 03:29:04,VALID,1002.69,VALID,0,VALID,93.9039,VALID,0.100563,VALID,24.3246,VALID,71,VALID,0.186719,
2009-07-07, 03:30:04,VALID,1002.7,VALID,0,VALID,93.8581,VALID,0,VALID,24.2857,VALID,71,VALID,0.0359375,
2009-07-07, 03:31:04,VALID,1002.7,VALID,0,VALID,93.8581,VALID,0,VALID,24.307,VALID,71,VALID,0,
2009-07-07, 03:32:04,VALID,1002.73,VALID,0,VALID,93.881,VALID,0,VALID,24.2681,VALID,71,VALID,0.00273437,
2009-07-07, 03:33:04,VALID,1002.75,VALID,0,VALID,93.9115,VALID,0,VALID,24.2857,VALID,71,VALID,0,
2009-07-07, 03:34:04,VALID,1002.73,VALID,0,VALID,93.9649,VALID,0,VALID,24.2857,VALID,71,VALID,0.354688,
2009-07-07, 03:35:04,VALID,1002.72,VALID,0,VALID,93.9573,VALID,0,VALID,24.3052,VALID,71,VALID,0,
2009-07-07, 03:36:04,VALID,1002.75,VALID,0,VALID,93.9268,VALID,0,VALID,24.2857,VALID,71,VALID,0,
2009-07-07, 03:37:04,VALID,1002.72,VALID,0,VALID,93.8734,VALID,0,VALID,24.2857,VALID,71,VALID,0,
2009-07-07, 03:38:04,VALID,1002.76,VALID,0,VALID,93.8963,VALID,0,VALID,24.2875,VALID,71,VALID,0,
2009-07-07, 03:39:04,VALID,1002.76,VALID,0,VALID,93.9725,VALID,0,VALID,24.2875,VALID,73,VALID,0.550781,
2009-07-07, 03:40:04,VALID,1002.78,VALID,0,VALID,94.0259,VALID,0,VALID,24.307,VALID,75,VALID,0.425,
2009-07-07, 03:41:04,VALID,1002.8,VALID,0,VALID,94.0412,VALID,0,VALID,24.2857,VALID,75,VALID,0.39375,
2009-07-07, 03:42:04,VALID,1002.77,VALID,0,VALID,94.0641,VALID,0,VALID,24.3052,VALID,81,VALID,0.411719,
2009-07-07, 03:43:04,VALID,1002.81,VALID,0,VALID,94.1022,VALID,0,VALID,24.3246,VALID,81,VALID,0.473437,
2009-07-07, 03:44:04,VALID,1002.84,VALID,0,VALID,94.1633,VALID,0,VALID,24.4043,VALID,84,VALID,0.501562,
2009-07-07, 03:45:04,VALID,1002.84,VALID,0,VALID,94.1709,VALID,0,VALID,24.4433,VALID,87,VALID,0.206641,
2009-07-07, 03:46:04,VALID,1002.85,VALID,0,VALID,94.209,VALID,0,VALID,24.4804,VALID,86,VALID,0.495703,
2009-07-07, 03:47:04,VALID,1002.86,VALID,0,VALID,94.1633,VALID,0,VALID,24.5212,VALID,77,VALID,0.660547,
2009-07-07, 03:48:04,VALID,1002.84,VALID,0,VALID,94.1099,VALID,0,VALID,24.5601,VALID,74,VALID,0.320703,
2009-07-07, 03:49:04,VALID,1002.85,VALID,0,VALID,93.9878,VALID,0,VALID,24.5388,VALID,80,VALID,0.255859,
2009-07-07, 03:50:04,VALID,1002.86,VALID,0,VALID,93.9268,VALID,0,VALID,24.5388,VALID,81,VALID,0.162891,
2009-07-07, 03:51:04,VALID,1002.86,VALID,0,VALID,93.8505,VALID,0,VALID,24.599,VALID,81,VALID,0.00195313,